[[{"header":{"parameterUnit":"m.s-1","parameterCategory":1,"la1":30.2991,"la2":30.254,"lo1":-89.0895,"lo2":-89.0444,"dy":0.0017,"dx":0.0017,"nx":28,"ny":28,"refTime":"2025-11-30T03:00:00:Z","depth":0,"parameterNumber":2,"parameterNumberName":"U-component_of_WINDS"},"data":[0,0,0,0,0,0,0,0,0,0,0,0,0,0,0,0,0,0,0,0,0,0,0,0,0,0,0,0,0,0,0,0,0,0,0,0,0,0,0,0,0,0,0,0,0,0,0,0,0,0,0,0,0,0,0,0,0,0,-2.6499,-2.6501,0,-2.6682,-2.6684,-2.6686,-2.6705,-2.6703,-2.6701,-2.6699,-2.6891,-2.6898,-2.6905,0,0,0,0,0,0,0,0,0,0,0,0,0,-2.6174,-2.618,-2.6499,-2.6501,-2.6503,-2.6682,-2.6684,-2.6687,-2.6705,-2.6703,-2.67,-2.6698,-2.6889,-2.6897,-2.6906,0,0,0,0,0,0,0,0,0,0,0,0,0,-2.6332,-2.6182,-2.6498,-2.6534,-2.6539,-2.6681,-2.6684,-2.6687,-2.6705,-2.6703,-2.67,-2.6697,-2.6886,-2.6896,-2.6907,-2.7028,0,0,-2.6938,-2.6943,0,0,0,0,0,0,0,0,-2.6323,-2.6344,-2.6526,-2.6532,-2.6538,-2.6667,-2.664,-2.6802,-2.6706,-2.6642,-2.6699,-2.6696,-2.682,-2.6835,-2.6876,-2.7037,-2.7045,-2.6939,-2.6945,-2.695,-2.6953,0,0,0,0,0,0,0,-2.6312,-2.6336,-2.6571,-2.6529,-2.6536,-2.6544,-2.6563,-2.6671,-2.6745,-2.6648,-2.6649,-2.6671,-2.6822,-2.6866,-2.6881,-2.7048,-2.6939,-2.6948,-2.6954,-2.6959,-2.7322,-2.7326,0,0,0,0,0,0,-2.6293,-2.6327,-2.6566,-2.6577,-2.6421,-2.6552,-2.6573,-2.6629,-2.6744,-2.6758,-2.6673,-2.6671,-2.685,-2.6868,-2.6887,-2.7039,-2.695,-2.696,-2.6965,-2.7319,-2.7323,-2.7327,0,0,0,0,0,0,-2.6286,-2.6314,-2.6558,-2.6453,-2.6484,-2.656,-2.6622,-2.6634,-2.6677,-2.6763,-2.6777,-2.6703,-2.6848,-2.6873,-2.6993,-2.7046,-2.6964,-2.6974,-2.7315,-2.732,-2.7325,-2.7341,0,0,0,0,0,0,-2.6277,-2.6312,-2.6356,-2.6453,-2.649,-2.6658,-2.6626,-2.6639,-2.6695,-2.6694,-2.6795,-2.6809,-2.6848,-2.6978,-2.7004,-2.7058,-2.6982,-2.731,-2.7317,-2.7323,-2.7336,-2.7346,-2.7354,0,0,0,0,0,-2.6265,-2.6353,-2.6358,-2.6387,-2.6546,-2.6661,-2.6682,-2.6723,-2.6699,-2.6745,-2.6801,-2.6806,-2.7036,-2.699,-2.7019,-2.7078,-2.7307,-2.7315,-2.7323,-2.7332,-2.7344,-2.7354,0,0,0,0,0,0,-2.626,-2.6366,-2.6373,-2.6494,-2.6568,-2.6664,-2.6723,-2.6734,-2.6818,-2.6814,-2.6863,-2.6886,-2.7005,-2.7054,-2.7001,-2.7204,-2.717,-2.7184,-2.7166,-2.7179,-2.7188,-2.7173,-2.699,0,0,0,0,0,-2.6273,-2.6355,-2.6445,-2.6544,-2.658,-2.6646,-2.6697,-2.6723,-2.6803,-2.6834,-2.6899,-2.6978,-2.7068,-2.7127,-2.7214,-2.7344,-2.7369,-2.74,-2.7409,-2.7416,-2.7427,-2.7503,-2.7519,-2.7352,-2.7352,-2.7352,0,0,-2.6301,-2.6369,-2.6418,-2.6544,-2.6605,-2.6692,-2.6672,-2.6763,-2.683,-2.6849,-2.6966,-2.7017,-2.7109,-2.7235,-2.7294,-2.728,-2.7479,-2.7426,-2.7431,-2.7438,-2.7513,-2.7529,-2.7543,-2.7358,-2.7357,-2.7356,0,0,-2.6395,-2.6454,-2.6544,-2.6606,-2.6698,-2.6742,-2.6764,-2.6859,-2.6893,-2.7012,-2.703,-2.7111,-2.7265,-2.7331,-2.7384,-2.751,-2.7519,-2.7538,-2.7585,-2.7659,-2.7672,-2.7684,-2.7731,-2.7747,-2.7549,-2.7549,-2.755,0,-2.6417,-2.6546,-2.6589,-2.6681,-2.6738,-2.6761,-2.6855,-2.6913,-2.703,-2.707,-2.7052,-2.7249,-2.7313,-2.7456,-2.7488,-2.753,-2.7559,-2.7525,-2.7667,-2.7679,-2.7691,-2.7736,-2.7753,-2.7551,-2.7551,-2.7551,-2.7551,0,-2.6571,-2.6661,-2.6723,-2.6835,-2.6899,-2.6992,-2.7052,-2.7113,-2.7136,-2.7182,-2.7306,-2.7384,-2.7489,-2.7526,-2.7548,-2.7675,-2.7664,-2.7656,-2.7622,-2.7708,-2.7751,-2.7768,-2.7554,-2.7553,-2.7552,-2.7552,0,0,-2.6661,-2.6799,-2.6822,-2.6874,-2.6981,-2.7052,-2.7149,-2.7252,-2.7304,-2.7386,-2.7469,-2.7603,-2.7597,-2.7659,-2.769,-2.7755,-2.7853,-2.774,-2.7743,-2.7758,-2.8,-2.8004,-2.8023,-2.786,-2.7864,-2.7867,-2.7993,0,-2.6768,-2.6936,-2.6981,-2.7125,-2.7211,-2.7237,-2.7322,-2.7398,-2.7447,-2.7529,-2.7584,-2.7678,-2.7663,-2.7701,-2.7766,-2.7826,-2.7902,-2.7818,-2.7941,-2.7945,-2.7915,-2.8046,-2.805,-2.8164,-2.801,-2.8013,-2.8015,0,-2.6912,-2.6997,-2.715,-2.7249,-2.7287,-2.7361,-2.7462,-2.7539,-2.7629,-2.766,-2.7731,-2.7758,-2.7863,-2.7827,-2.7975,-2.7917,-2.7972,-2.801,-2.8015,-2.8027,-2.7983,-2.8061,-2.8202,-2.8219,-2.8042,-2.804,-2.8038,0,-2.6964,-2.7117,-2.7229,-2.7273,-2.7391,-2.7444,-2.7496,-2.7583,-2.7644,-2.7733,-2.7774,-2.7875,-2.793,-2.8009,-2.8064,-2.8032,-2.8209,-2.8176,-2.824,-2.8239,-2.8273,-2.827,-2.8424,-2.831,-2.831,-2.8309,-2.8309,0,-2.7077,-2.7169,-2.7254,-2.7322,-2.7429,-2.7482,-2.7588,-2.7641,-2.772,-2.7802,-2.7833,-2.791,-2.7978,-2.8066,-2.8111,-2.8229,-2.8253,-2.8284,-2.8294,-2.828,-2.8276,-2.8314,-2.8308,-2.8314,-2.8313,-2.8312,-2.8311,0,-2.715,-2.721,-2.7335,-2.7438,-2.7466,-2.7541,-2.7631,-2.7701,-2.7752,-2.7857,-2.7885,-2.7967,-2.8072,-2.8136,-2.827,-2.83,-2.8431,-2.8438,-2.8399,-2.8404,-2.8464,-2.8457,-2.8647,-2.8676,-2.8542,-2.8544,-2.8545,0,-2.7217,-2.7289,-2.7401,-2.7458,-2.7511,-2.7602,-2.7665,-2.7722,-2.7787,-2.7898,-2.7956,-2.8063,-2.8152,-2.8321,-2.8394,-2.8498,-2.8509,-2.8568,-2.8524,-2.8509,-2.851,-2.8505,-2.8514,-2.8575,-2.8576,-2.8577,-2.8578,0,-2.733,-2.7358,-2.7445,-2.7545,-2.7619,-2.7701,-2.7782,-2.7828,-2.7901,-2.7973,-2.8081,-2.815,-2.8288,-2.8396,-2.8508,-2.8566,-2.8585,-2.8592,-2.8612,-2.8598,-2.8572,-2.8588,-2.8419,-2.8586,-2.8585,-2.8585,-2.8584,-2.8584,-2.7403,-2.747,-2.7559,-2.7658,-2.7726,-2.7803,-2.7874,-2.7936,-2.8027,-2.8142,-2.8173,-2.8287,-2.8381,-2.8533,-2.8594,-2.8687,-2.8678,-2.8707,-2.8714,-2.872,-2.8722,-2.8559,-2.8708,-2.8708,-2.8708,-2.8707,-2.8707,0,-2.7518,-2.7578,-2.7668,-2.7782,-2.7861,-2.7872,-2.7965,-2.8031,-2.813,-2.8216,-2.8303,-2.8431,-2.8537,-2.8621,-2.8731,-2.879,-2.8802,-2.8817,-2.8812,-2.8826,-2.8724,-2.8695,-2.8805,-2.8805,-2.8805,-2.8805,-2.8805,-2.8805,-2.7586,-2.77,-2.774,-2.789,-2.7951,-2.8062,-2.8114,-2.8187,-2.8256,-2.8396,-2.8484,-2.8538,-2.8625,-2.8742,-2.8842,-2.8865,-2.8904,-2.8917,-2.8941,-2.8843,-2.8833,-2.8822,-2.8796,-2.8925,-2.8926,-2.9036,-2.9037,-2.9038]},{"header":{"parameterUnit":"m.s-1","parameterCategory":1,"la1":30.2991,"la2":30.254,"lo1":-89.0895,"lo2":-89.0444,"dy":0.0017,"dx":0.0017,"nx":28,"ny":28,"refTime":"2025-11-30T03:00:00:Z","depth":0,"parameterNumber":3,"parameterNumberName":"V-component_of_WINDS"},"data":[0,0,0,0,0,0,0,0,0,0,0,0,0,0,0,0,0,0,0,0,0,0,0,0,0,0,0,0,0,0,0,0,0,0,0,0,0,0,0,0,0,0,0,0,0,0,0,0,0,0,0,0,0,0,0,0,0,0,0.005,0.0049,0,-0.0056,-0.0058,-0.0059,-0.0116,-0.0116,-0.0116,-0.0116,-0.0227,-0.023,-0.0233,0,0,0,0,0,0,0,0,0,0,0,0,0,0.0204,0.0201,0.0051,0.0049,0.0048,-0.0056,-0.0058,-0.0059,-0.0116,-0.0116,-0.0116,-0.0116,-0.0226,-0.023,-0.0233,0,0,0,0,0,0,0,0,0,0,0,0,0,0.0121,0.02,0.0051,0.0007,0.0002,-0.0056,-0.0058,-0.006,-0.0116,-0.0116,-0.0116,-0.0116,-0.0225,-0.0229,-0.0234,-0.0257,0,0,-0.0247,-0.0249,0,0,0,0,0,0,0,0,0.0126,0.0116,0.0015,0.001,0.0004,-0.0073,-0.0044,-0.0126,-0.0116,-0.0071,-0.0116,-0.0116,-0.0176,-0.0184,-0.0204,-0.0262,-0.0267,-0.0247,-0.025,-0.0251,-0.0253,0,0,0,0,0,0,0,0.0132,0.012,0.0008,0.0013,0.0007,-0.0008,-0.002,-0.006,-0.0121,-0.0075,-0.0079,-0.0091,-0.0179,-0.02,-0.0207,-0.0268,-0.0247,-0.0251,-0.0253,-0.0255,-0.0351,-0.0351,0,0,0,0,0,0,0.0145,0.0125,0.0012,0.0005,0.0066,-0.001,-0.0024,-0.0048,-0.0121,-0.0132,-0.0091,-0.0094,-0.0192,-0.0202,-0.0211,-0.0244,-0.0251,-0.0255,-0.0258,-0.0351,-0.0351,-0.0351,0,0,0,0,0,0,0.0148,0.0135,0.0016,0.0064,0.0047,-0.0013,-0.004,-0.005,-0.0071,-0.0133,-0.0144,-0.0101,-0.0193,-0.0205,-0.0245,-0.0248,-0.0257,-0.0261,-0.0351,-0.0351,-0.0351,-0.0309,0,0,0,0,0,0,0.0153,0.0137,0.0128,0.0064,0.0045,-0.0016,-0.004,-0.0052,-0.0078,-0.0082,-0.0145,-0.0156,-0.0194,-0.0238,-0.0249,-0.0254,-0.0265,-0.0351,-0.0351,-0.0351,-0.031,-0.0307,-0.0305,0,0,0,0,0,0.0159,0.0144,0.0128,0.0114,0.0033,-0.0016,-0.0027,-0.0069,-0.0078,-0.0088,-0.0128,-0.0154,-0.0246,-0.0242,-0.0255,-0.0261,-0.0351,-0.0351,-0.0351,-0.0311,-0.0308,-0.0305,0,0,0,0,0,0,0.0208,0.0135,0.0116,0.008,0.0039,-0.0025,-0.0039,-0.0064,-0.0104,-0.0107,-0.0158,-0.0172,-0.0207,-0.0238,-0.0232,-0.0288,-0.0301,-0.0304,-0.0267,-0.0264,-0.0261,-0.0253,-0.0268,0,0,0,0,0,0.0215,0.0182,0.012,0.0094,0.0075,0.0022,-0.0001,-0.003,-0.0075,-0.0093,-0.0136,-0.0179,-0.0218,-0.0242,-0.0281,-0.0314,-0.0329,-0.0325,-0.0322,-0.032,-0.0322,-0.0342,-0.0341,-0.0351,-0.0351,-0.0351,0,0,0.0228,0.0184,0.0167,0.0103,0.0068,0.0034,0.0007,-0.0027,-0.0052,-0.0099,-0.0139,-0.0172,-0.0223,-0.026,-0.0278,-0.0287,-0.0322,-0.032,-0.0317,-0.0321,-0.0342,-0.0341,-0.034,-0.0351,-0.0351,-0.0351,0,0,0.0236,0.02,0.0174,0.0139,0.0086,0.0051,0.0045,-0.0015,-0.0039,-0.008,-0.0115,-0.0146,-0.0212,-0.0247,-0.0274,-0.0279,-0.0305,-0.029,-0.0277,-0.0296,-0.0295,-0.0295,-0.0298,-0.0298,-0.0291,-0.0291,-0.0291,0,0.0259,0.0208,0.0164,0.0132,0.0105,0.0062,0.0035,0.0004,-0.0059,-0.0078,-0.0086,-0.0169,-0.0207,-0.0252,-0.0254,-0.0273,-0.0282,-0.0284,-0.0292,-0.0292,-0.0292,-0.0295,-0.0296,-0.0289,-0.029,-0.029,-0.029,0,0.0239,0.0204,0.0189,0.013,0.0101,0.0072,0.0023,-0.0001,-0.0027,-0.0061,-0.0103,-0.0149,-0.0199,-0.0212,-0.0238,-0.0261,-0.0265,-0.0282,-0.0297,-0.0288,-0.0292,-0.0294,-0.0286,-0.0287,-0.0288,-0.0288,0,0,0.0273,0.019,0.0185,0.0158,0.0097,0.0068,0.0037,-0.001,-0.003,-0.0072,-0.01,-0.0154,-0.017,-0.02,-0.023,-0.0247,-0.0249,-0.0262,-0.0264,-0.0259,-0.0279,-0.0267,-0.0268,-0.0266,-0.0267,-0.0267,-0.0275,0,0.0271,0.0213,0.0173,0.013,0.0097,0.0057,0.0029,-0.0011,-0.0044,-0.0077,-0.0114,-0.0151,-0.0169,-0.0187,-0.0206,-0.0245,-0.0254,-0.0245,-0.0294,-0.0295,-0.0281,-0.027,-0.0257,-0.0263,-0.0277,-0.0277,-0.0277,0,0.026,0.022,0.0175,0.0117,0.0101,0.0078,0.003,-0.0001,-0.0048,-0.007,-0.0103,-0.0135,-0.017,-0.018,-0.023,-0.0223,-0.0245,-0.0267,-0.0268,-0.0276,-0.0287,-0.0278,-0.0265,-0.0267,-0.028,-0.028,-0.028,0,0.0288,0.0223,0.0187,0.0165,0.0097,0.0081,0.0052,0.0005,-0.0021,-0.0063,-0.008,-0.0125,-0.015,-0.0184,-0.0226,-0.023,-0.0272,-0.0286,-0.0292,-0.0291,-0.0301,-0.03,-0.0293,-0.0312,-0.0312,-0.0312,-0.0312,0,0.0289,0.0262,0.0199,0.0177,0.0146,0.01,0.007,0.0038,-0.0004,-0.0033,-0.0071,-0.0098,-0.0152,-0.0186,-0.0219,-0.0256,-0.0266,-0.0286,-0.0295,-0.0283,-0.0281,-0.03,-0.0301,-0.0313,-0.0313,-0.0313,-0.0312,0,0.0315,0.0271,0.0229,0.0169,0.0153,0.0132,0.008,0.0057,0.0023,-0.0014,-0.0026,-0.008,-0.0121,-0.0167,-0.0224,-0.0246,-0.0281,-0.0293,-0.0265,-0.027,-0.0275,-0.0274,-0.0281,-0.0284,-0.03,-0.03,-0.03,0,0.0317,0.0296,0.0233,0.0211,0.0183,0.0148,0.0121,0.0075,0.0049,-0.0006,-0.0023,-0.0067,-0.0106,-0.017,-0.0215,-0.0259,-0.0272,-0.0272,-0.0279,-0.0267,-0.0274,-0.0273,-0.0275,-0.027,-0.0269,-0.0269,-0.0269,0,0.0326,0.0306,0.0269,0.0225,0.0194,0.0157,0.0118,0.0102,0.0048,0.002,-0.0022,-0.0052,-0.011,-0.0153,-0.0202,-0.0233,-0.026,-0.0266,-0.027,-0.0259,-0.0242,-0.0253,-0.026,-0.0266,-0.0266,-0.0266,-0.0266,-0.0267,0.0339,0.0319,0.0271,0.0231,0.0198,0.0162,0.0137,0.01,0.0064,0.0013,-0.0011,-0.0054,-0.0101,-0.017,-0.0199,-0.0234,-0.0242,-0.0248,-0.0249,-0.025,-0.0248,-0.0236,-0.0243,-0.0243,-0.0243,-0.0243,-0.0243,0,0.0346,0.0313,0.0277,0.0224,0.0193,0.0172,0.0128,0.0102,0.0065,0.0024,-0.0012,-0.0061,-0.0104,-0.0151,-0.0197,-0.0215,-0.0229,-0.0226,-0.0226,-0.0232,-0.0237,-0.023,-0.0214,-0.0214,-0.0214,-0.0214,-0.0214,-0.0214,0.0345,0.0308,0.0282,0.0228,0.0196,0.0154,0.0131,0.0098,0.0065,0.0012,-0.0024,-0.0054,-0.0098,-0.0147,-0.0187,-0.02,-0.0215,-0.0209,-0.0225,-0.0229,-0.0232,-0.0234,-0.0227,-0.0212,-0.0212,-0.0218,-0.0218,-0.0218]}]]